flux

Flag for Gambia Weather past 2 weeks in Serekunda, Gambia

Now
84 °F

Broken clouds.


Feels Like: 92 °F
Forecast: 78 / 86 °F
Wind: 8 mph from Southeast

Location: Banjul / Yundum

Current Time: Sep 23, 2014 at 11:02:34 AM

Latest Report: Sep 23, 2014 at 10:00 AM


Visibility: N/A

Pressure: 29.92 "Hg

Humidity: 74%

Dew point: 75 °F

Location of SerekundaLocation

Historic Weather in Serekunda — Graph

°F

Serekunda temperature yesterday

Maximum temperature yesterday: 86 °F (at 2:00 PM)
Minimum temperature yesterday: 73 °F (at 6:00 AM)
Average temperature yesterday: 79 °F

Past Weeks' High & Low Weather Summary

 TemperatureHumidityPressure
High90 °F (Sep 10, 2:00 PM)100% (Sep 8, 9:00 PM)29.98 "Hg (Sep 8, 9:00 PM)
Low72 °F (Sep 9, 8:00 PM)54% (Sep 11, 11:00 PM)29.77 "Hg (Sep 18, 5:00 PM)
Average80 °F87%29.88 "Hg
* Reported Sep 8 10:00 AM — Sep 23 10:00 AM, Serekunda, Weather by CustomWeather, © 2014

Note: Actual official high and low records may vary slightly from our data, if they occured in-between our weather recording intervals... More about our weather records

Advertising

Serekunda weather history for previous 24 hours

 ConditionsComfort  
Time TempWeatherWind HumidityBarometerVisibility
10:00 AM
Sep 23
84 °FBroken clouds.8 mph74%29.92 "HgN/A
9:00 AM79 °FBroken clouds.No wind94%29.92 "HgN/A
8:00 AM77 °FBroken clouds.No wind94%29.89 "Hg6 mi
7:00 AM75 °FBroken clouds.No wind100%29.89 "Hg6 mi
6:00 AM77 °FPassing clouds.No wind94%29.86 "Hg6 mi
5:00 AM77 °FPassing clouds.No wind94%29.86 "Hg6 mi
4:00 AM77 °FPassing clouds.No wind94%29.86 "Hg6 mi
3:00 AM77 °FPassing clouds.No wind94%29.86 "Hg6 mi
2:00 AM77 °FPassing clouds.No wind94%29.89 "HgN/A
12:00 AM77 °FPassing clouds.No wind94%29.89 "HgN/A
11:00 PM
Sep 22
77 °FPassing clouds.No wind94%29.89 "HgN/A
10:00 PM77 °FPassing clouds.No wind94%29.89 "HgN/A
9:00 PM77 °FPassing clouds.No wind94%29.89 "HgN/A
8:00 PM79 °FPartly cloudy.No wind84%29.89 "HgN/A
7:00 PM79 °FBroken clouds.9 mph84%29.86 "HgN/A
6:00 PM81 °FBroken clouds.7 mph79%29.86 "HgN/A
5:00 PM81 °FBroken clouds.9 mph79%29.89 "HgN/A
4:00 PM81 °FThunderstorms. Broken clouds.9 mph79%29.86 "HgN/A
3:00 PM82 °FThunderstorms. Broken clouds.13 mph79%29.89 "HgN/A
2:00 PM86 °FThunderstorms. Broken clouds.10 mph79%29.86 "HgN/A
1:00 PM84 °FPartly sunny.6 mph79%29.89 "HgN/A
12:00 PM84 °FBroken clouds.8 mph79%29.89 "HgN/A
11:00 AM82 °FBroken clouds.7 mph84%29.92 "HgN/A
Weather by CustomWeather, © 2014

See weather overviewHow to use our weather pages